Weather History for Logrono, Spain

Change the Weather History Date:

Thursday, September 26, 2013

  Actual Average Record
Temperature  
Mean Temperature 74 °F -  
Max Temperature 88 °F - - ()
Min Temperature 59 °F - - ()
Cooling Degree Days 8    
Growing Degree Days 24 (Base 50)    
Moisture  
Dew Point 61 °F    
Average Humidity 69    
Maximum Humidity 94    
Minimum Humidity 22    
Precipitation  
Precipitation 0.00 in - - ()
Sea Level Pressure  
Sea Level Pressure 29.90 in    
Wind  
Wind Speed 4 mph ()    
Max Wind Speed 17 mph    
Max Gust Speed 24 mph    
Visibility 6.8 miles    
Events      
T = Trace of Precipitation, MM = Missing Value Source: Averaged Metar Reports

Daily Weather History Graph

Daily Weather History Graph

Search for Another Location

Airport:

Trip Planner

Search our weather history database for the weather conditions in past years. The results will help you decide how hot, cold, wet, or windy it might be!

Date:

Astronomy

Sep. 26, 2013 Rise Set
Actual Time 8:01 AM CEST 7:59 PM CEST
Civil Twilight 7:32 AM CEST 8:27 PM CEST
Nautical Twilight 7:00 AM CEST 9:00 PM CEST
Astronomical Twilight 6:26 AM CEST 9:33 PM CEST
Moon No Moon Rise 2:48 PM CEST (9/26)
Length of Visible Light 12h 54m
Length of Day
11h 58m
Waning Gibbous, 57% of the Moon is Illuminated
Sep 26
Waning Gibbous
Sep 27
Last Quarter
Oct 5
New
Oct 12
First Quarter
Oct 19
Full

Hourly Weather History & Observations

Time (CEST) Temp. Heat Index Dew Point Humidity Pressure Visibility Wind Dir Wind Speed Gust Speed Precip Events Conditions
12:00 AM 66.2 °F - 62.6 °F 88% 29.92 in 6.2 mi Calm Calm - N/A   Partly Cloudy
1:00 AM 64.4 °F - 60.8 °F 88% 29.92 in 6.2 mi Variable 2.3 mph - N/A   Partly Cloudy
2:00 AM 62 °F - 57 °F 77% 29.90 in 9 mi Calm Calm - -   Scattered Clouds
2:00 AM 64.4 °F - 60.8 °F 88% 29.92 in 6.2 mi Calm Calm - N/A   Partly Cloudy
3:00 AM 62.6 °F - 59.0 °F 88% 29.92 in 6.2 mi Calm Calm - N/A   Partly Cloudy
4:00 AM 60.8 °F - 59.0 °F 94% 29.92 in 6.2 mi Variable 1.2 mph - N/A   Partly Cloudy
5:00 AM 62.6 °F - 59.0 °F 88% 29.92 in 6.2 mi Variable 2.3 mph - N/A   Partly Cloudy
6:00 AM 68.0 °F - 64.4 °F 88% 29.92 in 6.2 mi ENE 4.6 mph - N/A   Partly Cloudy
7:00 AM 68.0 °F - 64.4 °F 88% 29.92 in 6.2 mi ENE 4.6 mph - N/A   Partly Cloudy
8:00 AM 60 °F - 56 °F 83% 29.94 in 9 mi East 4.6 mph - -   Scattered Clouds
8:00 AM 66.2 °F - 64.4 °F 94% 29.95 in 6.2 mi ENE 5.8 mph - N/A   Partly Cloudy
9:00 AM 68.0 °F - 64.4 °F 88% 29.95 in 6.2 mi ENE 4.6 mph - N/A   Mostly Cloudy
10:00 AM 69.8 °F - 66.2 °F 88% 29.98 in 6.2 mi East 4.6 mph - N/A   Mostly Cloudy
11:00 AM 71.6 °F - 66.2 °F 83% 29.98 in 6.2 mi East 10.4 mph - N/A   Scattered Clouds
12:00 PM 77.0 °F - 68.0 °F 74% 29.98 in 6.2 mi East 10.4 mph - N/A   Partly Cloudy
1:00 PM 80.6 °F 82.7 °F 66.2 °F 61% 29.95 in 6.2 mi East 10.4 mph - N/A   Partly Cloudy
2:00 PM 81 °F - 60 °F 38% 29.86 in 9 mi East 17.3 mph - -   Scattered Clouds
2:00 PM 82.4 °F 84.6 °F 66.2 °F 58% 29.92 in 6.2 mi East 11.5 mph - N/A   Partly Cloudy
3:00 PM 86.0 °F 86.6 °F 62.6 °F 45% 29.89 in 6.2 mi East 10.4 mph - N/A   Partly Cloudy
4:00 PM 86.0 °F 85.4 °F 59.0 °F 40% 29.89 in - East 12.7 mph 24.2 mph N/A   Clear
5:00 PM 89.6 °F 88.9 °F 59.0 °F 36% 29.86 in - East 12.7 mph - N/A   Clear
6:00 PM 87.8 °F 86.5 °F 57.2 °F 35% 29.83 in - East 10.4 mph - N/A   Clear
7:00 PM 86.0 °F 84.9 °F 57.2 °F 37% 29.83 in - East 10.4 mph - N/A   Clear
8:00 PM 82 °F - 49 °F 22% 29.78 in 9 mi East 11.5 mph - -   Scattered Clouds
8:00 PM 82.4 °F 82.0 °F 57.2 °F 42% 29.83 in - East 8.1 mph - N/A   Clear
9:00 PM 75.2 °F - 60.8 °F 61% 29.86 in - Variable 1.2 mph - N/A   Clear
10:00 PM 68.0 °F - 62.6 °F 83% 29.89 in - Calm Calm - N/A   Clear
11:00 PM 66.2 °F - 60.8 °F 83% 29.89 in - Calm Calm - N/A   Clear